CW9443 Weather Reports


Display with metric or nautical units.
time (UTC)temp
F
wind
direction
speed
MPH
gust
MPH
rain 1hr
in
rain 24hr
in
rain mn
in
humidity
%
barometer
mb
20260509024610 61 215 0.0 0.0 0.00 0.00 0.00 80 1011.8
20260509023015 61 215 0.0 0.0 0.00 0.00 0.00 80 1011.8
20260509021514 62 215 0.0 0.0 0.00 0.00 0.00 79 1011.7
20260509020015 62 215 0.0 0.0 0.00 0.00 0.00 78 1011.7
20260509014614 63 215 0.0 0.0 0.00 0.00 0.00 76 1011.8
20260509013018 63 215 0.0 0.0 0.00 0.00 0.00 76 1011.8
20260509011515 65 218 0.0 0.0 0.00 0.00 0.00 74 1011.7
20260509010020 66 214 0.0 0.0 0.00 0.00 0.00 72 1011.7
20260509004614 67 207 0.0 0.0 0.00 0.00 0.00 71 1011.8
20260509003042 67 207 0.0 0.0 0.00 0.00 0.00 70 1011.8
20260509001541 67 211 0.0 0.0 0.00 0.00 0.00 70 1011.7
20260509000040 68 211 0.0 0.0 0.00 0.00 0.00 70 1011.9
20260508234639 70 209 0.0 0.0 0.00 0.00 0.00 66 1012.1
20260508233017 70 209 0.0 0.0 0.00 0.00 0.00 67 1012.2
20260508231516 70 240 1.0 0.0 0.00 0.00 0.00 66 1012.2
20260508230019 71 249 0.0 0.0 0.00 0.00 0.00 65 1012.3
20260508224613 71 207 1.0 0.0 0.00 0.00 0.00 65 1012.6
20260508223035 71 200 1.0 0.0 0.00 0.00 0.00 65 1012.7
20260508221521 71 232 2.0 0.0 0.00 0.00 0.00 65 1012.7
20260508220021 71 209 1.0 0.0 0.00 0.00 0.00 65 1012.9
20260508214618 71 225 1.0 0.0 0.00 0.00 0.00 66 1013.1
20260508213025 71 227 0.0 0.0 0.00 0.00 0.00 65 1013.1
20260508211517 71 202 1.0 0.0 0.00 0.00 0.00 67 1013.4
20260508210015 71 221 1.0 0.0 0.00 0.00 0.00 65 1013.5
20260508204615 72 199 1.0 0.0 0.00 0.00 0.00 65 1013.8
20260508203026 71 198 2.0 0.0 0.00 0.00 0.00 65 1013.9
20260508201524 71 230 1.0 0.0 0.00 0.00 0.00 65 1014.0
20260508200021 71 237 3.0 0.0 0.00 0.00 0.00 65 1014.2
20260508194622 70 232 1.0 0.0 0.00 0.00 0.00 66 1014.2
20260508193004 70 240 1.0 0.0 0.00 0.00 0.00 68 1014.2
20260508191507 69 240 1.0 0.0 0.00 0.00 0.00 69 1014.3
20260508184609 66 253 1.0 0.0 0.00 0.00 0.00 74 1014.7
20260508183003 66 252 1.0 0.0 0.00 0.00 0.00 75 1014.8
20260508181504 65 253 0.0 0.0 0.00 0.00 0.00 75 1015.0
20260508180100 64 253 0.0 0.0 0.00 0.00 0.00 76 1015.0
20260508174559 61 214 0.0 0.0 0.00 0.00 0.00 82 1015.1
20260508173101 61 214 0.0 0.0 0.00 0.00 0.00 82 1015.2
20260508171556 60 211 0.0 0.0 0.00 0.00 0.00 83 1015.1
20260508170054 60 224 0.0 0.0 0.00 0.00 0.00 84 1015.2
20260508164553 59 223 0.0 0.0 0.00 0.00 0.00 86 1015.1
20260508163033 59 224 0.0 0.0 0.00 0.00 0.00 86 1015.0
20260508161531 58 224 0.0 0.0 0.00 0.00 0.00 87 1015.0
20260508160052 58 223 0.0 0.0 0.00 0.00 0.00 88 1015.0
20260508154528 57 224 0.0 0.0 0.00 0.00 0.00 90 1015.0
20260508153051 57 223 0.0 0.0 0.00 0.00 0.00 91 1015.0
20260508151553 56 224 0.0 0.0 0.00 0.00 0.00 92 1015.0
20260508144519 56 223 0.0 0.0 0.00 0.00 0.00 92 1015.0
20260508143024 56 224 0.0 0.0 0.00 0.00 0.00 92 1015.0
20260508141517 56 223 0.0 0.0 0.00 0.00 0.00 93 1014.8
20260508134559 55 224 0.0 0.0 0.00 0.00 0.00 93 1014.6
20260508133100 54 224 0.0 0.0 0.00 0.00 0.00 93 1014.7
20260508131513 53 224 0.0 0.0 0.00 0.00 0.00 92 1014.5
20260508130016 54 223 0.0 0.0 0.00 0.00 0.00 92 1014.4
20260508124511 54 224 0.0 0.0 0.00 0.00 0.00 91 1014.3
20260508121546 54 224 0.0 0.0 0.00 0.00 0.00 91 1014.1
20260508120014 55 224 0.0 0.0 0.00 0.00 0.00 91 1013.9
20260508114512 55 224 0.0 0.0 0.00 0.00 0.00 91 1013.7
20260508113011 55 224 0.0 0.0 0.00 0.00 0.00 91 1013.8
20260508110031 55 224 0.0 0.0 0.00 0.00 0.00 90 1013.7
20260508104528 55 224 0.0 0.0 0.00 0.00 0.00 90 1013.6
20260508103025 56 224 0.0 0.0 0.00 0.00 0.00 90 1013.6
20260508100038 56 223 0.0 0.0 0.00 0.00 0.00 90 1013.6
20260508094538 56 224 0.0 0.0 0.00 0.00 0.00 90 1013.5
20260508093035 56 224 0.0 0.0 0.00 0.00 0.00 89 1013.5
20260508090040 56 224 0.0 0.0 0.00 0.00 0.00 89 1013.5
20260508084539 56 224 0.0 0.0 0.00 0.00 0.00 89 1013.7
20260508083115 56 224 0.0 0.0 0.00 0.00 0.00 89 1013.9
20260508080100 56 224 0.0 0.0 0.00 0.00 0.00 89 1014.0
20260508074554 56 223 0.0 0.0 0.00 0.00 0.00 88 1014.1
20260508073057 57 224 0.0 0.0 0.00 0.00 0.00 86 1014.1
20260508070018 58 224 0.0 0.0 0.00 0.00 0.00 83 1013.9
20260508064538 59 223 0.0 0.0 0.00 0.00 0.00 82 1014.0
20260508063017 59 224 0.0 0.0 0.00 0.00 0.00 82 1013.9
20260508060020 59 224 0.0 0.0 0.00 0.00 0.00 83 1013.6
20260508054517 59 224 0.0 0.0 0.00 0.00 0.00 83 1013.5
20260508053017 58 224 0.0 0.0 0.00 0.00 0.00 83 1013.6
20260508050025 58 223 0.0 0.0 0.00 0.00 0.00 84 1013.4
20260508044525 58 223 0.0 0.0 0.00 0.00 0.00 84 1013.5
20260508043027 59 224 0.0 0.0 0.00 0.00 0.00 83 1013.4
20260508040029 60 223 0.0 0.0 0.00 0.00 0.00 81 1013.2
20260508034528 60 224 0.0 0.0 0.00 0.00 0.00 80 1013.1
20260508033027 61 224 0.0 0.0 0.00 0.00 0.00 78 1013.0
20260508030119 62 224 0.0 0.0 0.00 0.00 0.00 75 1012.7